Weather in Pervomaisk

Ukraine / Luhansk Region     48°37′54″N   38°32′08″E
temp.,
°C
wind,
m/s
gust,
m/s
humid.,
%
clouds,
%
prec.,
mm/h
press.,
hPa
HPBL,
m
13 april, tue
tue1300:00+12sse118255 0.0 102220
03:00+12ese1184100 0.0 102222
06:00+11ne2287100 0.0 102231
09:00+11e497892 0.0 1021377
12:00+15se5760100 0.0 1021994
15:00+15sse576899 0.0 1021931
18:00+13s4680100 0.1 1022585
21:00+11sse1185100 0.1 102246
14 april, wed
wed1400:00+11sw1187100 0.1 102115
03:00+10sw1188100 0.1 102012
06:00+10wnw2290100 0.0 101932
09:00+10ssw1291100 1.8 1019132
12:00+15sse375895 0.7 10171211
15:00+15sse345697 1.0 10161104
18:00+13w466788 0.6 1016263
21:00+11nnw2273100 0.6 101638
15 april, thu
thu1500:00+10w227846 0.0 101516
03:00+9wsw2380100 0.0 101552
06:00+8wsw228590 0.0 101540
09:00+13w33654 0.0 1015423
12:00+16wsw344844 0.0 10141402
15:00+18ssw45358 0.0 10132053
18:00+14sw585996 0.1 1014559
21:00
16 april, fri
fri1600:00+11sw478354 0.1 1014479
03:00+8sw26961 0.1 1014167
06:00+7sw26945 0.0 1015175
09:00+10wsw45655 0.0 1016725
12:00+13ssw345192 0.0 10161589
15:00+12sw4556100 0.0 10161019
18:00+12sw455266 0.0 1016780
21:00+10s367497 0.4 1017274
17 april, sat
sat1700:00+7sw367140 0.0 1018162
03:00+6wsw228663 0.1 101953
06:00+6sw228471 0.0 101953
09:00+10wsw34615 0.0 1019733
12:00+13w334399 0.1 10192056
15:00+13w234095 0.1 10191779
18:00+13w234398 0.0 1019968
21:00+9w236790 0.0 102045